Погода в Татаурове

Россия / Кировская область     57°48′48″N   49°33′55″E
темп.,
°C
ветер,
м/с
пор.,
м/с
влажн.,
%
обл.,
%
осадки,
мм/ч
давл.,
гПа
погр.,
м
30 ноября, вт
вт3000:000ююв615100100 6.9 1006708
03:00+1ююв61499100 9.4 1002557
06:00+1юв71599100 0.4 998554
09:00+1ююв112198100 7.7 993864
12:000ююв101998100 2.6 990771
15:000ю81799100 5.2 987689
18:00+1ю81799100 2.4 985622
21:00+3ююз8179356 2.4 985636
1 декабря, ср
ср100:00+1ююз91692100 0.3 9861113
03:00+1ююз101879100 0.5 9871276
06:000ююз81581100 0.1 9881072
09:00−1ююз7138697 0.1 990827
12:00−1ююз4890100 0.1 990650
15:00−3ююв2296100 0.1 98947
18:00−2ююз1398100 0.0 98884
21:00−3з4893100 0.1 988419
2 декабря, чт
чт200:00−4зюз479385 0.0 990264
03:00−4зюз51093100 0.0 992509
06:00−5юз599299 0.1 994487
09:00−4юз599297 0.2 995586
12:00−4зюз598796 0.1 997692
15:00−5зюз4988100 0.1 999409
18:00−6зюз5108989 0.1 1000423
21:00−7зюз51089100 0.1 1002641
3 декабря, пт
пт300:00−7зюз51090100 0.0 1003525
03:00−6юз498981 0.0 1003463
06:00−6юз379289 0.0 1004294
09:00−6ю379683 0.1 1005331
12:00−3ююз4996100 0.3 1005419
15:00−2юз4119786 1.0 1006481
18:00−1зюз51197100 0.4 1008532
21:00−1юз4992100 0.6 1010339
4 декабря, сб
сб400:00−2ююз3997100 0.0 1011334
03:00−2ююв41097100 0.1 1010302
06:00+1ююв81698100 1.3 1006572
09:00+1ю81899100 1.3 1004689
12:00+1ююз91899100 1.2 1003821
15:00+1юз81498100 2.4 1005787
18:00−2зюз61286100 0.1 1010624
21:00−3зюз4987100 0.1 1012346